TimeEDT,TemperatureF,Dew PointF,Humidity,Sea Level PressureIn,VisibilityMPH,Wind Direction,Wind SpeedMPH,Gust SpeedMPH,PrecipitationIn,Events,Conditions,WindDirDegrees,DateUTC
12:53 AM,62.1,57.9,86,29.91,7.0,Calm,Calm,-,N/A,,Clear,0,2012-10-06 04:53:00
1:53 AM,61.0,57.0,87,29.89,7.0,Calm,Calm,-,N/A,,Clear,0,2012-10-06 05:53:00
2:53 AM,59.0,55.9,90,29.88,5.0,Calm,Calm,-,N/A,,Clear,0,2012-10-06 06:53:00
3:53 AM,57.9,55.0,90,29.87,3.0,Calm,Calm,-,N/A,,Clear,0,2012-10-06 07:53:00
4:31 AM,57.2,55.4,94,29.88,2.5,Calm,Calm,-,N/A,,Clear,0,2012-10-06 08:31:00
4:38 AM,57.2,55.4,94,29.88,3.0,Calm,Calm,-,N/A,,Clear,0,2012-10-06 08:38:00
4:53 AM,57.0,55.0,93,29.86,3.0,Calm,Calm,-,N/A,,Clear,0,2012-10-06 08:53:00
5:53 AM,57.0,55.0,93,29.85,5.0,SSW,3.5,-,N/A,,Clear,200,2012-10-06 09:53:00
6:53 AM,57.9,55.9,93,29.84,6.0,Calm,Calm,-,N/A,,Clear,0,2012-10-06 10:53:00
7:53 AM,61.0,57.9,90,29.84,5.0,SW,5.8,-,N/A,,Clear,220,2012-10-06 11:53:00
8:53 AM,64.9,61.0,87,29.83,7.0,SW,8.1,-,N/A,,Clear,230,2012-10-06 12:53:00
9:53 AM,71.1,62.1,73,29.82,10.0,WSW,8.1,-,N/A,,Clear,240,2012-10-06 13:53:00
10:53 AM,73.0,61.0,66,29.81,10.0,SW,9.2,-,N/A,,Clear,230,2012-10-06 14:53:00
11:53 AM,75.0,59.0,57,29.79,10.0,WSW,13.8,25.3,N/A,,Mostly Cloudy,240,2012-10-06 15:53:00
12:53 PM,73.9,59.0,59,29.78,10.0,West,12.7,18.4,N/A,,Overcast,270,2012-10-06 16:53:00
1:53 PM,73.9,59.0,59,29.77,10.0,West,9.2,19.6,N/A,,Overcast,280,2012-10-06 17:53:00
2:53 PM,72.0,57.0,59,29.79,10.0,NW,13.8,20.7,N/A,,Overcast,310,2012-10-06 18:53:00
3:53 PM,70.0,57.0,63,29.81,10.0,NW,10.4,19.6,N/A,,Mostly Cloudy,320,2012-10-06 19:53:00
4:53 PM,66.9,54.0,63,29.83,10.0,NW,12.7,20.7,N/A,,Mostly Cloudy,320,2012-10-06 20:53:00
5:53 PM,63.0,51.1,65,29.86,10.0,North,11.5,-,N/A,,Partly Cloudy,10,2012-10-06 21:53:00
6:53 PM,60.1,50.0,69,29.90,10.0,North,5.8,-,N/A,,Clear,360,2012-10-06 22:53:00
7:53 PM,57.0,48.0,72,29.94,10.0,NW,3.5,-,N/A,,Clear,320,2012-10-06 23:53:00
8:53 PM,55.0,48.0,77,29.96,10.0,Calm,Calm,-,N/A,,Clear,0,2012-10-07 00:53:00
9:53 PM,54.0,46.9,77,29.97,10.0,Calm,Calm,-,N/A,,Clear,0,2012-10-07 01:53:00
10:53 PM,52.0,45.0,77,29.98,10.0,Calm,Calm,-,N/A,,Clear,0,2012-10-07 02:53:00
11:53 PM,50.0,43.0,77,29.99,10.0,Calm,Calm,-,N/A,,Clear,0,2012-10-07 03:53:00